Flag for U.S.A. Weather past 2 weeks in Youngstown, Ohio, U.S.A.

Now
38 °F

Passing clouds.


Feels Like: 32 °F
Forecast: 37 / 60 °F
Wind: 8 mph from North

Location: Youngstown-Warren Regional Airport


UV Index: 5 (Moderate)

Visibility: 8 mi


Pressure: 30.33 "Hg

Humidity: 86%

Dew point: 34 °F

Location of YoungstownLocation

Historic Weather in Youngstown

°F

Youngstown temperature yesterday

Maximum temperature yesterday: 66 °F (at 3:51 PM)
Minimum temperature yesterday: 41 °F (at 5:51 AM)
Average temperature yesterday: 52 °F

Past Weeks' High & Low Weather Summary

 TemperatureHumidityPressure
High79 °F (Apr 13, 3:51 PM)100% (Apr 4, 8:51 AM)30.51 "Hg (Apr 4, 8:51 AM)
Low20 °F (Apr 16, 4:51 AM)23% (Apr 12, 5:51 PM)29.31 "Hg (Apr 8, 2:51 AM)
Average48 °F61%29.98 "Hg
* Reported Apr 4 4:51 AM — Apr 19 4:51 AM, Youngstown, Weather by CustomWeather, © 2014

Note: Actual official high and low records may vary slightly from our data, if they occured in-between our weather recording intervals... More about our weather records

Advertising

Historic Weather Conditions — Data for Previous 24 hours

 ConditionsComfort  
Time TempWeatherWind HumidityBarometerVisibility
4:51 AM
Apr 19
40 °FPassing clouds.6 mph89%30.32 "Hg7 mi
3:51 AM42 °FFog.7 mph89%30.29 "Hg6 mi
2:51 AM43 °FPassing clouds.7 mph86%30.29 "Hg8 mi
1:51 AM42 °FPassing clouds.8 mph85%30.28 "Hg10 mi
12:51 AM47 °FPartly cloudy.5 mph77%30.28 "Hg10 mi
11:51 PM
Apr 18
47 °FOvercast.7 mph77%30.28 "Hg10 mi
10:51 PM47 °FPassing clouds.10 mph74%30.27 "Hg10 mi
9:51 PM50 °FPassing clouds.8 mph66%30.26 "Hg10 mi
8:51 PM53 °FScattered clouds.8 mph56%30.24 "Hg10 mi
7:51 PM56 °FPartly sunny.7 mph49%30.22 "Hg10 mi
6:51 PM60 °FPartly sunny.12 mph44%30.23 "Hg10 mi
5:51 PM62 °FBroken clouds.14 mph39%30.23 "Hg10 mi
4:51 PM64 °FMostly cloudy.14 mph34%30.22 "Hg10 mi
3:51 PM66 °FBroken clouds.16 mph29%30.22 "Hg10 mi
2:51 PM64 °FCloudy.6 mph32%30.24 "Hg10 mi
1:51 PM63 °FMore clouds than sun.7 mph31%30.25 "Hg10 mi
12:51 PM61 °FHigh level clouds.5 mph34%30.27 "Hg10 mi
11:51 AM58 °FHigh level clouds.3 mph35%30.29 "Hg10 mi
10:51 AM55 °FOvercast.7 mph39%30.31 "Hg10 mi
9:51 AM51 °FMore clouds than sun.6 mph41%30.30 "Hg10 mi
8:51 AM47 °FOvercast.7 mph50%30.31 "Hg10 mi
7:51 AM44 °FMostly cloudy.9 mph53%30.31 "Hg10 mi
6:51 AM41 °FPassing clouds.9 mph58%30.31 "Hg10 mi
Weather by CustomWeather, © 2014

See weather overview